This is the latest recevied weather packets stored in our database for station/object K7TUS-6. If no packets are shown the sender has not sent any weather packets the latest 10 day(s).
| Time | Temp. | Humidity | Pressure | Rain* | Wind** | Luminosity | Snow |
|---|---|---|---|---|---|---|---|
| 1777807206 | 11.11° C | 21% | 984.1 hPa | - | - | - | - |
| 1777806905 | 11.11° C | 20% | 984 hPa | - | - | - | - |
| 1777806605 | 11.11° C | 20% | 984.4 hPa | - | - | - | - |
| 1777806304 | 11.11° C | 21% | 984.5 hPa | - | - | - | - |
| 1777806003 | 10.56° C | 22% | 985.1 hPa | - | - | - | - |
| 1777805703 | 11.11° C | 22% | 984.6 hPa | - | - | - | - |
| 1777805408 | 11.11° C | 21% | 984.6 hPa | - | - | - | - |
| 1777805108 | 10.56° C | 20% | 984.9 hPa | - | - | - | - |
| 1777804806 | 10.56° C | 23% | 984.5 hPa | - | - | - | - |
| 1777804505 | 10° C | 23% | 984.6 hPa | - | - | - | - |
| 1777803905 | 10.56° C | 21% | 984.6 hPa | - | - | - | - |
| 1777803604 | 10.56° C | 22% | 984.7 hPa | - | - | - | - |
| 1777803303 | 10.56° C | 21% | 985 hPa | - | - | - | - |
| 1777803003 | 10.56° C | 22% | 985.2 hPa | - | - | - | - |
| 1777802702 | 10° C | 23% | 984.8 hPa | - | - | - | - |
| 1777802402 | 10.56° C | 22% | 985 hPa | - | - | - | - |
| 1777802107 | 10.56° C | 23% | 984 hPa | - | - | - | - |
| 1777801806 | 10° C | 22% | 984.3 hPa | - | - | - | - |
| 1777801506 | 10° C | 22% | 985.2 hPa | - | - | - | - |
| 1777800905 | 10° C | 23% | 984.7 hPa | - | - | - | - |
| 1777800604 | 10.56° C | 23% | 984.8 hPa | - | - | - | - |
| 1777800003 | 10.56° C | 22% | 984.9 hPa | - | - | - | - |
| 1777799409 | 10.56° C | 22% | 985.9 hPa | - | - | - | - |
| 1777799108 | 10.56° C | 20% | 984.9 hPa | - | - | - | - |
| 1777798808 | 10.56° C | 22% | 985.3 hPa | - | - | - | - |
* Rain since midnight (hover to see other rain measurements)
** Current wind speed in m/s (hover to see current wind gust speed)